This is the latest recevied weather packets stored in our database for station/object KE5QKR. If no packets are shown the sender has not sent any weather packets the latest 10 day(s).
| Time | Temp. | Humidity | Pressure | Rain* | Wind** | Luminosity | Snow |
|---|---|---|---|---|---|---|---|
| 1778185679 | 25° C | 82% | 1011.4 hPa | 0 mm | - | 354 W/m² | - |
| 1778185375 | 25° C | 82% | 1011.5 hPa | 0 mm | - | 270 W/m² | - |
| 1778185070 | 25° C | 83% | 1011.4 hPa | 0 mm | - | 189 W/m² | - |
| 1778184767 | 25.56° C | 82% | 1011.5 hPa | 0 mm | - | 273 W/m² | - |
| 1778184463 | 25.56° C | 82% | 1011.5 hPa | 0 mm | - | 246 W/m² | - |
| 1778184159 | 25.56° C | 83% | 1011.7 hPa | 0 mm | - | 233 W/m² | - |
| 1778183856 | 25.56° C | 82% | 1011.8 hPa | 0 mm | - | 226 W/m² | - |
| 1778183553 | 25.56° C | 82% | 1011.7 hPa | 0 mm | - | 273 W/m² | - |
| 1778183250 | 25.56° C | 82% | 1011.8 hPa | 0 mm | - | 325 W/m² | - |
| 1778182946 | 25.56° C | 83% | 1011.9 hPa | 0 mm | - | 376 W/m² | - |
| 1778182643 | 25.56° C | 82% | 1011.7 hPa | 0 mm | - | 279 W/m² | - |
| 1778182340 | 25.56° C | 82% | 1011.6 hPa | 0 mm | - | 264 W/m² | - |
| 1778182036 | 25.56° C | 81% | 1011.6 hPa | 0 mm | - | 269 W/m² | - |
| 1778181733 | 25.56° C | 83% | 1011.9 hPa | 0 mm | - | 267 W/m² | - |
| 1778181428 | 25.56° C | 83% | 1011.8 hPa | 0 mm | - | 221 W/m² | - |
| 1778181126 | 25.56° C | 82% | 1011.9 hPa | 0 mm | - | 359 W/m² | - |
| 1778180823 | 25.56° C | 82% | 1011.8 hPa | 0 mm | - | 311 W/m² | - |
| 1778180522 | 25° C | 83% | 1011.8 hPa | 0 mm | - | 358 W/m² | - |
| 1778180220 | 25.56° C | 84% | 1011.9 hPa | 0 mm | - | 558 W/m² | - |
| 1778179916 | 25° C | 84% | 1012 hPa | 0 mm | - | 718 W/m² | - |
| 1778179614 | 24.44° C | 85% | 1012 hPa | 0 mm | - | 496 W/m² | - |
| 1778179312 | 25° C | 86% | 1012 hPa | 0 mm | - | 407 W/m² | - |
| 1778179008 | 24.44° C | 85% | 1012.1 hPa | 0 mm | - | 483 W/m² | - |
| 1778178705 | 23.89° C | 85% | 1012.1 hPa | 0 mm | - | 393 W/m² | - |
| 1778178402 | 24.44° C | 85% | 1012.2 hPa | 0 mm | - | 419 W/m² | - |
* Rain latest hour (hover to see other rain measurements)
** Current wind speed in m/s (hover to see current wind gust speed)